| time (UTC) | temp C | wind direction | speed KPH | gust KPH | rain 1hr cm | rain 24hr cm | rain mn cm | humidity % | barometer mb |
| 20260510105039 | 18 | 201 | 0.0 | 0.0 | 0.00 | 0.00 | 0.00 | 50 | 1012.3 |
| 20260510104536 | 18 | 206 | 0.0 | 0.0 | 0.00 | 0.00 | 0.00 | 49 | 1012.4 |
| 20260510104033 | 19 | 201 | 0.0 | 1.6 | 0.00 | 0.00 | 0.00 | 49 | 1012.4 |
| 20260510103530 | 19 | 216 | 0.0 | 0.0 | 0.00 | 0.00 | 0.00 | 47 | 1012.5 |
| 20260510103026 | 20 | 202 | 0.0 | 0.0 | 0.00 | 0.00 | 0.00 | 47 | 1012.1 |
| 20260510102522 | 20 | 214 | 0.0 | 0.0 | 0.00 | 0.00 | 0.00 | 46 | 1012.4 |
| 20260510102018 | 20 | 230 | 1.6 | 1.6 | 0.00 | 0.00 | 0.00 | 46 | 1012.3 |
| 20260510101516 | 20 | 240 | 1.6 | 3.2 | 0.00 | 0.00 | 0.00 | 46 | 1011.8 |
| 20260510101014 | 20 | 165 | 1.6 | 1.6 | 0.00 | 0.00 | 0.00 | 45 | 1012.2 |
| 20260510100510 | 20 | 332 | 1.6 | 3.2 | 0.00 | 0.00 | 0.00 | 46 | 1012.5 |
| 20260510100007 | 20 | 289 | 1.6 | 3.2 | 0.00 | 0.00 | 0.00 | 46 | 1011.8 |
| 20260510095503 | 20 | 202 | 1.6 | 3.2 | 0.00 | 0.00 | 0.00 | 45 | 1011.5 |
| 20260510095002 | 20 | 208 | 1.6 | 3.2 | 0.00 | 0.00 | 0.00 | 45 | 1011.2 |
| 20260510094457 | 20 | 136 | 4.8 | 8.0 | 0.00 | 0.00 | 0.00 | 44 | 1011.1 |
| 20260510093953 | 20 | 184 | 1.6 | 3.2 | 0.00 | 0.00 | 0.00 | 43 | 1011.1 |
| 20260510093449 | 20 | 237 | 1.6 | 1.6 | 0.00 | 0.00 | 0.00 | 43 | 1011.2 |
| 20260510092945 | 21 | 155 | 1.6 | 1.6 | 0.00 | 0.00 | 0.00 | 42 | 1011.0 |
| 20260510092443 | 21 | 226 | 0.0 | 1.6 | 0.00 | 0.00 | 0.00 | 41 | 1010.8 |
| 20260510091942 | 21 | 240 | 1.6 | 3.2 | 0.00 | 0.00 | 0.00 | 41 | 1010.8 |
| 20260510091440 | 21 | 175 | 4.8 | 4.8 | 0.00 | 0.00 | 0.00 | 40 | 1011.0 |
| 20260510090936 | 21 | 171 | 1.6 | 1.6 | 0.00 | 0.00 | 0.00 | 39 | 1011.3 |
| 20260510090433 | 21 | 107 | 3.2 | 3.2 | 0.00 | 0.00 | 0.00 | 39 | 1011.1 |
| 20260510085928 | 21 | 212 | 0.0 | 0.0 | 0.00 | 0.00 | 0.00 | 39 | 1011.4 |
| 20260510085424 | 21 | 212 | 1.6 | 1.6 | 0.00 | 0.00 | 0.00 | 38 | 1011.2 |
| 20260510084919 | 21 | 222 | 1.6 | 1.6 | 0.00 | 0.00 | 0.00 | 38 | 1011.0 |
| 20260510084417 | 21 | 209 | 0.0 | 0.0 | 0.00 | 0.00 | 0.00 | 37 | 1011.2 |
| 20260510083913 | 21 | 214 | 0.0 | 1.6 | 0.00 | 0.00 | 0.00 | 37 | 1010.8 |
| 20260510083410 | 21 | 257 | 0.0 | 1.6 | 0.00 | 0.00 | 0.00 | 36 | 1011.1 |
| 20260510082905 | 21 | 212 | 0.0 | 1.6 | 0.00 | 0.00 | 0.00 | 36 | 1010.7 |
| 20260510082404 | 22 | 206 | 0.0 | 1.6 | 0.00 | 0.00 | 0.00 | 35 | 1010.8 |
| 20260510081902 | 22 | 224 | 0.0 | 1.6 | 0.00 | 0.00 | 0.00 | 35 | 1010.6 |
| 20260510081358 | 22 | 231 | 3.2 | 3.2 | 0.00 | 0.00 | 0.00 | 35 | 1010.7 |
| 20260510080855 | 22 | 248 | 4.8 | 9.7 | 0.00 | 0.00 | 0.00 | 35 | 1011.1 |
| 20260510080348 | 21 | 243 | 1.6 | 1.6 | 0.00 | 0.00 | 0.00 | 35 | 1011.0 |
| 20260510075846 | 21 | 229 | 0.0 | 0.0 | 0.00 | 0.00 | 0.00 | 35 | 1011.1 |
| 20260510075344 | 22 | 231 | 0.0 | 1.6 | 0.00 | 0.00 | 0.00 | 35 | 1011.2 |
| 20260510074840 | 22 | 313 | 0.0 | 1.6 | 0.00 | 0.00 | 0.00 | 35 | 1011.4 |
| 20260510074337 | 22 | 254 | 3.2 | 4.8 | 0.00 | 0.00 | 0.00 | 36 | 1011.1 |
| 20260510073833 | 22 | 319 | 3.2 | 4.8 | 0.00 | 0.00 | 0.00 | 36 | 1010.8 |
| 20260510073329 | 22 | 242 | 3.2 | 3.2 | 0.00 | 0.00 | 0.00 | 36 | 1010.5 |
| 20260510072825 | 22 | 220 | 3.2 | 3.2 | 0.00 | 0.00 | 0.00 | 35 | 1010.3 |
| 20260510072322 | 22 | 246 | 6.4 | 9.7 | 0.00 | 0.00 | 0.00 | 35 | 1010.2 |
| 20260510071813 | 22 | 210 | 1.6 | 1.6 | 0.00 | 0.00 | 0.00 | 35 | 1010.0 |
| 20260510071309 | 22 | 241 | 3.2 | 3.2 | 0.00 | 0.00 | 0.00 | 35 | 1010.0 |
| 20260510070808 | 22 | 229 | 1.6 | 3.2 | 0.00 | 0.00 | 0.00 | 35 | 1010.0 |
| 20260510070304 | 22 | 348 | 3.2 | 3.2 | 0.00 | 0.00 | 0.00 | 34 | 1010.0 |
| 20260510065759 | 22 | 230 | 4.8 | 4.8 | 0.00 | 0.00 | 0.00 | 34 | 1010.1 |
| 20260510065256 | 22 | 240 | 1.6 | 3.2 | 0.00 | 0.00 | 0.00 | 34 | 1009.8 |
| 20260510064753 | 22 | 275 | 3.2 | 3.2 | 0.00 | 0.00 | 0.00 | 33 | 1010.4 |
| 20260510064250 | 23 | 250 | 1.6 | 3.2 | 0.00 | 0.00 | 0.00 | 33 | 1010.1 |
| 20260510063745 | 23 | 194 | 1.6 | 3.2 | 0.00 | 0.00 | 0.00 | 33 | 1010.2 |
| 20260510063242 | 23 | 208 | 3.2 | 4.8 | 0.00 | 0.00 | 0.00 | 32 | 1010.0 |
| 20260510062739 | 23 | 202 | 4.8 | 4.8 | 0.00 | 0.00 | 0.00 | 32 | 1010.0 |
| 20260510062235 | 23 | 204 | 1.6 | 3.2 | 0.00 | 0.00 | 0.00 | 32 | 1009.8 |
| 20260510061730 | 23 | 241 | 4.8 | 4.8 | 0.00 | 0.00 | 0.00 | 31 | 1009.8 |
| 20260510061228 | 23 | 246 | 4.8 | 8.0 | 0.00 | 0.00 | 0.00 | 31 | 1009.7 |
| 20260510060724 | 23 | 230 | 1.6 | 3.2 | 0.00 | 0.00 | 0.00 | 31 | 1009.8 |
| 20260510060221 | 23 | 171 | 4.8 | 8.0 | 0.00 | 0.00 | 0.00 | 30 | 1009.8 |
| 20260510055717 | 23 | 240 | 1.6 | 3.2 | 0.00 | 0.00 | 0.00 | 30 | 1010.0 |
| 20260510055216 | 23 | 243 | 4.8 | 8.0 | 0.00 | 0.00 | 0.00 | 30 | 1009.8 |
| 20260510054715 | 23 | 197 | 4.8 | 8.0 | 0.00 | 0.00 | 0.00 | 29 | 1010.0 |
| 20260510054211 | 23 | 266 | 1.6 | 3.2 | 0.00 | 0.00 | 0.00 | 28 | 1009.8 |
| 20260510053706 | 23 | 15 | 3.2 | 3.2 | 0.00 | 0.00 | 0.00 | 28 | 1009.7 |
| 20260510053203 | 23 | 77 | 4.8 | 8.0 | 0.00 | 0.00 | 0.00 | 27 | 1010.1 |
| 20260510052658 | 23 | 197 | 4.8 | 9.7 | 0.00 | 0.00 | 0.00 | 27 | 1009.6 |
| 20260510052154 | 24 | 137 | 6.4 | 11.3 | 0.00 | 0.00 | 0.00 | 26 | 1009.8 |
| 20260510051650 | 24 | 70 | 6.4 | 9.7 | 0.00 | 0.00 | 0.00 | 25 | 1009.7 |
| 20260510051147 | 23 | 207 | 4.8 | 9.7 | 0.00 | 0.00 | 0.00 | 25 | 1009.7 |
| 20260510050644 | 23 | 240 | 6.4 | 11.3 | 0.00 | 0.00 | 0.00 | 24 | 1009.7 |
| 20260510050142 | 23 | 179 | 1.6 | 3.2 | 0.00 | 0.00 | 0.00 | 23 | 1009.8 |
| 20260510045638 | 24 | 2 | 1.6 | 3.2 | 0.00 | 0.00 | 0.00 | 22 | 1010.0 |
| 20260510045135 | 24 | 179 | 3.2 | 4.8 | 0.00 | 0.00 | 0.00 | 22 | 1009.8 |
| 20260510044631 | 24 | 233 | 8.0 | 11.3 | 0.00 | 0.00 | 0.00 | 21 | 1009.8 |
| 20260510044129 | 24 | 223 | 4.8 | 8.0 | 0.00 | 0.00 | 0.00 | 21 | 1009.6 |
| 20260510043624 | 24 | 199 | 3.2 | 4.8 | 0.00 | 0.00 | 0.00 | 20 | 1009.8 |
| 20260510043121 | 25 | 125 | 3.2 | 4.8 | 0.00 | 0.00 | 0.00 | 20 | 1009.7 |
| 20260510042618 | 25 | 218 | 4.8 | 4.8 | 0.00 | 0.00 | 0.00 | 19 | 1009.7 |
| 20260510042114 | 25 | 223 | 1.6 | 4.8 | 0.00 | 0.00 | 0.00 | 19 | 1009.5 |
| 20260510041612 | 25 | 203 | 4.8 | 8.0 | 0.00 | 0.00 | 0.00 | 19 | 1009.7 |
| 20260510041108 | 25 | 213 | 0.0 | 0.0 | 0.00 | 0.00 | 0.00 | 19 | 1009.5 |
| 20260510040600 | 25 | 266 | 3.2 | 3.2 | 0.00 | 0.00 | 0.00 | 19 | 1009.4 |
| 20260510040056 | 25 | 188 | 0.0 | 1.6 | 0.00 | 0.00 | 0.00 | 18 | 1009.6 |
| 20260510035552 | 25 | 204 | 1.6 | 3.2 | 0.00 | 0.00 | 0.00 | 18 | 1009.6 |
| 20260510035052 | 25 | 193 | 0.0 | 1.6 | 0.00 | 0.00 | 0.00 | 18 | 1009.4 |
| 20260510034550 | 25 | 241 | 1.6 | 1.6 | 0.00 | 0.00 | 0.00 | 18 | 1009.7 |
| 20260510034047 | 25 | 206 | 1.6 | 1.6 | 0.00 | 0.00 | 0.00 | 18 | 1009.5 |
| 20260510033543 | 25 | 206 | 1.6 | 1.6 | 0.00 | 0.00 | 0.00 | 17 | 1009.4 |
| 20260510033041 | 26 | 210 | 1.6 | 8.0 | 0.00 | 0.00 | 0.00 | 17 | 1009.4 |
| 20260510032537 | 26 | 165 | 1.6 | 1.6 | 0.00 | 0.00 | 0.00 | 17 | 1009.5 |
| 20260510032033 | 26 | 166 | 1.6 | 3.2 | 0.00 | 0.00 | 0.00 | 17 | 1009.5 |
| 20260510031528 | 27 | 215 | 1.6 | 3.2 | 0.00 | 0.00 | 0.00 | 16 | 1009.4 |
| 20260510031024 | 27 | 209 | 1.6 | 1.6 | 0.00 | 0.00 | 0.00 | 16 | 1009.3 |
| 20260510030520 | 27 | 214 | 1.6 | 1.6 | 0.00 | 0.00 | 0.00 | 16 | 1009.2 |
| 20260510030017 | 28 | 227 | 1.6 | 3.2 | 0.00 | 0.00 | 0.00 | 15 | 1009.3 |
| 20260510025514 | 28 | 230 | 1.6 | 1.6 | 0.00 | 0.00 | 0.00 | 15 | 1009.1 |
| 20260510025011 | 28 | 257 | 8.0 | 11.3 | 0.00 | 0.00 | 0.00 | 14 | 1008.9 |
| 20260510024508 | 29 | 241 | 1.6 | 1.6 | 0.00 | 0.00 | 0.00 | 14 | 1008.9 |
| 20260510024004 | 30 | 224 | 1.6 | 3.2 | 0.00 | 0.00 | 0.00 | 14 | 1008.7 |
| 20260510023500 | 30 | 268 | 8.0 | 9.7 | 0.00 | 0.00 | 0.00 | 13 | 1008.7 |
| 20260510022957 | 29 | 246 | 12.9 | 16.1 | 0.00 | 0.00 | 0.00 | 14 | 1008.9 |
| 20260510022457 | 28 | 221 | 3.2 | 3.2 | 0.00 | 0.00 | 0.00 | 15 | 1008.7 |
| 20260510021956 | 29 | 222 | 1.6 | 3.2 | 0.00 | 0.00 | 0.00 | 15 | 1008.7 |
| 20260510021454 | 29 | 232 | 4.8 | 4.8 | 0.00 | 0.00 | 0.00 | 14 | 1008.5 |
| 20260510020951 | 30 | 241 | 6.4 | 8.0 | 0.00 | 0.00 | 0.00 | 14 | 1008.6 |
| 20260510020450 | 30 | 244 | 1.6 | 3.2 | 0.00 | 0.00 | 0.00 | 14 | 1008.4 |
| 20260510015946 | 30 | 227 | 1.6 | 1.6 | 0.00 | 0.00 | 0.00 | 14 | 1008.4 |
| 20260510015442 | 30 | 220 | 4.8 | 4.8 | 0.00 | 0.00 | 0.00 | 14 | 1008.4 |
| 20260510014938 | 30 | 220 | 1.6 | 1.6 | 0.00 | 0.00 | 0.00 | 14 | 1008.1 |
| 20260510014436 | 30 | 224 | 3.2 | 4.8 | 0.00 | 0.00 | 0.00 | 13 | 1008.2 |
| 20260510013932 | 30 | 212 | 1.6 | 1.6 | 0.00 | 0.00 | 0.00 | 14 | 1008.1 |
| 20260510013426 | 31 | 253 | 4.8 | 4.8 | 0.00 | 0.00 | 0.00 | 13 | 1008.3 |
| 20260510012922 | 31 | 233 | 1.6 | 3.2 | 0.00 | 0.00 | 0.00 | 13 | 1008.2 |
| 20260510012418 | 31 | 223 | 4.8 | 8.0 | 0.00 | 0.00 | 0.00 | 13 | 1007.9 |
| 20260510011912 | 31 | 243 | 4.8 | 4.8 | 0.00 | 0.00 | 0.00 | 13 | 1008.0 |
| 20260510011408 | 31 | 204 | 3.2 | 4.8 | 0.00 | 0.00 | 0.00 | 13 | 1007.9 |
| 20260510010904 | 31 | 242 | 4.8 | 8.0 | 0.00 | 0.00 | 0.00 | 12 | 1008.1 |
| 20260510010401 | 32 | 252 | 3.2 | 3.2 | 0.00 | 0.00 | 0.00 | 12 | 1007.9 |
| 20260510005858 | 32 | 266 | 8.0 | 11.3 | 0.00 | 0.00 | 0.00 | 12 | 1007.8 |
| 20260510005354 | 32 | 248 | 11.3 | 14.5 | 0.00 | 0.00 | 0.00 | 12 | 1007.9 |
| 20260510004852 | 32 | 171 | 6.4 | 9.7 | 0.00 | 0.00 | 0.00 | 12 | 1007.8 |
| 20260510004349 | 33 | 241 | 3.2 | 4.8 | 0.00 | 0.00 | 0.00 | 11 | 1008.0 |
| 20260510003847 | 32 | 255 | 8.0 | 14.5 | 0.00 | 0.00 | 0.00 | 12 | 1007.8 |
| 20260510003344 | 33 | 243 | 6.4 | 9.7 | 0.00 | 0.00 | 0.00 | 11 | 1008.0 |
| 20260510002842 | 33 | 246 | 4.8 | 8.0 | 0.00 | 0.00 | 0.00 | 11 | 1008.1 |
| 20260510002340 | 33 | 259 | 4.8 | 8.0 | 0.00 | 0.00 | 0.00 | 11 | 1007.8 |
| 20260510001836 | 33 | 167 | 6.4 | 9.7 | 0.00 | 0.00 | 0.00 | 11 | 1008.0 |
| 20260510001335 | 34 | 197 | 8.0 | 12.9 | 0.00 | 0.00 | 0.00 | 11 | 1007.9 |
| 20260510000830 | 33 | 265 | 8.0 | 9.7 | 0.00 | 0.00 | 0.00 | 11 | 1008.0 |
| 20260510000328 | 34 | 176 | 1.6 | 1.6 | 0.00 | 0.00 | 0.00 | 11 | 1007.8 |
| 20260509235825 | 34 | 229 | 4.8 | 8.0 | 0.00 | 0.00 | 0.00 | 11 | 1008.1 |
| 20260509235321 | 35 | 187 | 6.4 | 9.7 | 0.00 | 0.00 | 0.00 | 11 | 1007.9 |
| 20260509234817 | 35 | 269 | 11.3 | 14.5 | 0.00 | 0.00 | 0.00 | 11 | 1008.0 |
| 20260509234314 | 35 | 252 | 6.4 | 8.0 | 0.00 | 0.00 | 0.00 | 10 | 1008.2 |
| 20260509233812 | 35 | 198 | 6.4 | 8.0 | 0.00 | 0.00 | 0.00 | 11 | 1008.0 |
| 20260509233309 | 35 | 216 | 6.4 | 12.9 | 0.00 | 0.00 | 0.00 | 11 | 1008.1 |
| 20260509232805 | 35 | 241 | 6.4 | 8.0 | 0.00 | 0.00 | 0.00 | 11 | 1007.9 |
| 20260509232306 | 35 | 230 | 11.3 | 12.9 | 0.00 | 0.00 | 0.00 | 10 | 1008.1 |
| 20260509231759 | 35 | 223 | 3.2 | 3.2 | 0.00 | 0.00 | 0.00 | 11 | 1008.1 |
| 20260509231256 | 35 | 343 | 3.2 | 4.8 | 0.00 | 0.00 | 0.00 | 11 | 1008.2 |
| 20260509230754 | 35 | 276 | 9.7 | 11.3 | 0.00 | 0.00 | 0.00 | 11 | 1008.0 |
| 20260509230250 | 35 | 250 | 6.4 | 9.7 | 0.00 | 0.00 | 0.00 | 11 | 1008.2 |
| 20260509225745 | 35 | 254 | 8.0 | 11.3 | 0.00 | 0.00 | 0.00 | 10 | 1008.4 |
| 20260509225242 | 34 | 183 | 6.4 | 11.3 | 0.00 | 0.00 | 0.00 | 11 | 1008.3 |
| 20260509224737 | 34 | 147 | 11.3 | 17.7 | 0.00 | 0.00 | 0.00 | 11 | 1008.4 |
| 20260509224235 | 35 | 256 | 8.0 | 11.3 | 0.00 | 0.00 | 0.00 | 11 | 1008.5 |
| 20260509223732 | 34 | 212 | 8.0 | 9.7 | 0.00 | 0.00 | 0.00 | 12 | 1008.3 |
| 20260509223229 | 35 | 236 | 4.8 | 8.0 | 0.00 | 0.00 | 0.00 | 12 | 1008.3 |
| 20260509222726 | 35 | 224 | 8.0 | 12.9 | 0.00 | 0.00 | 0.00 | 12 | 1008.4 |
| 20260509222221 | 35 | 294 | 14.5 | 24.1 | 0.00 | 0.00 | 0.00 | 11 | 1008.4 |
| 20260509221717 | 33 | 263 | 8.0 | 11.3 | 0.00 | 0.00 | 0.00 | 12 | 1008.4 |
| 20260509221213 | 33 | 237 | 6.4 | 9.7 | 0.00 | 0.00 | 0.00 | 12 | 1008.5 |
| 20260509220709 | 35 | 267 | 12.9 | 16.1 | 0.00 | 0.00 | 0.00 | 11 | 1008.7 |
| 20260509220206 | 35 | 289 | 14.5 | 17.7 | 0.00 | 0.00 | 0.00 | 12 | 1009.0 |
| 20260509215701 | 35 | 264 | 3.2 | 4.8 | 0.00 | 0.00 | 0.00 | 12 | 1008.6 |
| 20260509215158 | 35 | 228 | 4.8 | 9.7 | 0.00 | 0.00 | 0.00 | 13 | 1008.7 |
| 20260509214655 | 34 | 242 | 16.1 | 22.5 | 0.00 | 0.00 | 0.00 | 12 | 1008.9 |
| 20260509214152 | 35 | 261 | 8.0 | 11.3 | 0.00 | 0.00 | 0.00 | 12 | 1009.2 |
| 20260509213649 | 35 | 235 | 17.7 | 22.5 | 0.00 | 0.00 | 0.00 | 11 | 1009.1 |
| 20260509213145 | 34 | 235 | 4.8 | 4.8 | 0.00 | 0.00 | 0.00 | 13 | 1008.9 |
| 20260509212642 | 35 | 198 | 6.4 | 9.7 | 0.00 | 0.00 | 0.00 | 12 | 1009.1 |
| 20260509212139 | 34 | 259 | 4.8 | 9.7 | 0.00 | 0.00 | 0.00 | 12 | 1009.3 |
| 20260509211635 | 34 | 274 | 6.4 | 9.7 | 0.00 | 0.00 | 0.00 | 12 | 1009.4 |
| 20260509211132 | 33 | 236 | 8.0 | 9.7 | 0.00 | 0.00 | 0.00 | 13 | 1009.5 |
| 20260509210629 | 33 | 254 | 6.4 | 12.9 | 0.00 | 0.00 | 0.00 | 12 | 1009.7 |
| 20260509210126 | 34 | 232 | 11.3 | 14.5 | 0.00 | 0.00 | 0.00 | 13 | 1009.6 |
| 20260509205620 | 35 | 246 | 17.7 | 24.1 | 0.00 | 0.00 | 0.00 | 12 | 1009.7 |
| 20260509205115 | 35 | 251 | 8.0 | 9.7 | 0.00 | 0.00 | 0.00 | 12 | 1009.7 |
| 20260509204612 | 35 | 265 | 9.7 | 11.3 | 0.00 | 0.00 | 0.00 | 12 | 1009.8 |
| 20260509204108 | 35 | 259 | 9.7 | 16.1 | 0.00 | 0.00 | 0.00 | 11 | 1009.6 |
| 20260509203604 | 35 | 274 | 12.9 | 16.1 | 0.00 | 0.00 | 0.00 | 12 | 1009.8 |
| 20260509203102 | 35 | 238 | 11.3 | 14.5 | 0.00 | 0.00 | 0.00 | 12 | 1010.0 |
| 20260509202556 | 35 | 245 | 9.7 | 14.5 | 0.00 | 0.00 | 0.00 | 12 | 1010.4 |
| 20260509202053 | 35 | 259 | 8.0 | 9.7 | 0.00 | 0.00 | 0.00 | 12 | 1010.2 |
| 20260509201547 | 35 | 206 | 14.5 | 16.1 | 0.00 | 0.00 | 0.00 | 12 | 1010.2 |
| 20260509201046 | 35 | 244 | 9.7 | 14.5 | 0.00 | 0.00 | 0.00 | 12 | 1010.4 |
| 20260509200545 | 35 | 254 | 20.9 | 27.4 | 0.00 | 0.00 | 0.00 | 12 | 1010.6 |
| 20260509200042 | 35 | 270 | 11.3 | 14.5 | 0.00 | 0.00 | 0.00 | 12 | 1010.7 |
| 20260509195537 | 35 | 242 | 8.0 | 12.9 | 0.00 | 0.00 | 0.00 | 12 | 1010.6 |
| 20260509195032 | 35 | 231 | 11.3 | 12.9 | 0.00 | 0.00 | 0.00 | 12 | 1010.8 |
| 20260509194527 | 35 | 226 | 11.3 | 17.7 | 0.00 | 0.00 | 0.00 | 12 | 1010.8 |
| 20260509194024 | 35 | 216 | 8.0 | 12.9 | 0.00 | 0.00 | 0.00 | 13 | 1010.8 |
| 20260509193518 | 35 | 217 | 9.7 | 14.5 | 0.00 | 0.00 | 0.00 | 13 | 1011.0 |
| 20260509193015 | 35 | 299 | 6.4 | 9.7 | 0.00 | 0.00 | 0.00 | 12 | 1011.0 |
| 20260509192512 | 35 | 122 | 4.8 | 9.7 | 0.00 | 0.00 | 0.00 | 12 | 1011.3 |
| 20260509192007 | 35 | 242 | 8.0 | 9.7 | 0.00 | 0.00 | 0.00 | 13 | 1011.2 |
| 20260509191502 | 35 | 252 | 8.0 | 12.9 | 0.00 | 0.00 | 0.00 | 14 | 1011.1 |
| 20260509190958 | 35 | 174 | 8.0 | 11.3 | 0.00 | 0.00 | 0.00 | 14 | 1011.2 |
| 20260509190455 | 34 | 282 | 6.4 | 9.7 | 0.00 | 0.00 | 0.00 | 14 | 1011.1 |
| 20260509185953 | 34 | 209 | 4.8 | 4.8 | 0.00 | 0.00 | 0.00 | 13 | 1011.3 |
| 20260509185450 | 34 | 176 | 4.8 | 8.0 | 0.00 | 0.00 | 0.00 | 14 | 1011.4 |
| 20260509184946 | 33 | 204 | 8.0 | 9.7 | 0.00 | 0.00 | 0.00 | 14 | 1011.6 |
| 20260509184445 | 33 | 261 | 17.7 | 24.1 | 0.00 | 0.00 | 0.00 | 14 | 1011.6 |
| 20260509183940 | 34 | 94 | 6.4 | 9.7 | 0.00 | 0.00 | 0.00 | 14 | 1011.9 |
| 20260509183435 | 33 | 263 | 9.7 | 12.9 | 0.00 | 0.00 | 0.00 | 14 | 1011.5 |
| 20260509182932 | 33 | 286 | 9.7 | 14.5 | 0.00 | 0.00 | 0.00 | 14 | 1011.9 |
| 20260509182428 | 33 | 187 | 8.0 | 11.3 | 0.00 | 0.00 | 0.00 | 15 | 1011.9 |
| 20260509181925 | 33 | 74 | 8.0 | 9.7 | 0.00 | 0.00 | 0.00 | 15 | 1012.2 |
| 20260509181423 | 33 | 222 | 4.8 | 8.0 | 0.00 | 0.00 | 0.00 | 15 | 1012.1 |
| 20260509180920 | 33 | 308 | 6.4 | 9.7 | 0.00 | 0.00 | 0.00 | 16 | 1012.4 |
| 20260509180416 | 33 | 41 | 6.4 | 9.7 | 0.00 | 0.00 | 0.00 | 15 | 1012.7 |
| 20260509175913 | 33 | 171 | 4.8 | 8.0 | 0.00 | 0.00 | 0.00 | 16 | 1012.6 |
| 20260509175409 | 33 | 224 | 4.8 | 8.0 | 0.00 | 0.00 | 0.00 | 16 | 1012.6 |
| 20260509174906 | 32 | 281 | 12.9 | 16.1 | 0.00 | 0.00 | 0.00 | 16 | 1012.8 |
| 20260509174402 | 32 | 152 | 4.8 | 4.8 | 0.00 | 0.00 | 0.00 | 17 | 1012.8 |
| 20260509173858 | 32 | 259 | 14.5 | 17.7 | 0.00 | 0.00 | 0.00 | 17 | 1013.0 |
| 20260509173357 | 32 | 233 | 9.7 | 11.3 | 0.00 | 0.00 | 0.00 | 18 | 1012.9 |
| 20260509172854 | 32 | 216 | 11.3 | 14.5 | 0.00 | 0.00 | 0.00 | 19 | 1012.9 |
| 20260509172351 | 32 | 346 | 6.4 | 9.7 | 0.00 | 0.00 | 0.00 | 19 | 1012.9 |
| 20260509171847 | 32 | 298 | 4.8 | 4.8 | 0.00 | 0.00 | 0.00 | 19 | 1012.9 |
| 20260509171343 | 31 | 84 | 6.4 | 9.7 | 0.00 | 0.00 | 0.00 | 20 | 1013.0 |
| 20260509170840 | 32 | 225 | 6.4 | 8.0 | 0.00 | 0.00 | 0.00 | 20 | 1013.0 |
| 20260509170335 | 31 | 201 | 6.4 | 11.3 | 0.00 | 0.00 | 0.00 | 20 | 1013.2 |
| 20260509165830 | 31 | 135 | 4.8 | 4.8 | 0.00 | 0.00 | 0.00 | 21 | 1013.5 |
| 20260509165325 | 31 | 248 | 8.0 | 11.3 | 0.00 | 0.00 | 0.00 | 23 | 1013.4 |
| 20260509164821 | 31 | 263 | 8.0 | 9.7 | 0.00 | 0.00 | 0.00 | 23 | 1013.5 |
| 20260509164317 | 31 | 259 | 14.5 | 22.5 | 0.00 | 0.00 | 0.00 | 22 | 1013.5 |
| 20260509163814 | 30 | 274 | 6.4 | 9.7 | 0.00 | 0.00 | 0.00 | 23 | 1013.5 |
| 20260509163310 | 30 | 301 | 1.6 | 3.2 | 0.00 | 0.00 | 0.00 | 25 | 1013.6 |
| 20260509162809 | 30 | 263 | 8.0 | 9.7 | 0.00 | 0.00 | 0.00 | 24 | 1013.8 |
| 20260509162306 | 30 | 295 | 4.8 | 8.0 | 0.00 | 0.00 | 0.00 | 25 | 1013.8 |
| 20260509161759 | 29 | 264 | 4.8 | 8.0 | 0.00 | 0.00 | 0.00 | 27 | 1013.7 |
| 20260509161255 | 28 | 168 | 4.8 | 8.0 | 0.00 | 0.00 | 0.00 | 28 | 1013.9 |
| 20260509160751 | 28 | 236 | 3.2 | 3.2 | 0.00 | 0.00 | 0.00 | 29 | 1013.9 |
| 20260509160247 | 28 | 170 | 3.2 | 3.2 | 0.00 | 0.00 | 0.00 | 30 | 1013.9 |
| 20260509155742 | 28 | 178 | 4.8 | 4.8 | 0.00 | 0.00 | 0.00 | 31 | 1013.7 |
| 20260509155239 | 28 | 211 | 1.6 | 3.2 | 0.00 | 0.00 | 0.00 | 32 | 1013.8 |
| 20260509154735 | 27 | 235 | 3.2 | 4.8 | 0.00 | 0.00 | 0.00 | 33 | 1014.0 |
| 20260509154232 | 27 | 218 | 6.4 | 8.0 | 0.00 | 0.00 | 0.00 | 33 | 1014.0 |
| 20260509153730 | 27 | 78 | 1.6 | 1.6 | 0.00 | 0.00 | 0.00 | 37 | 1014.0 |
| 20260509153225 | 27 | 300 | 3.2 | 4.8 | 0.00 | 0.00 | 0.00 | 37 | 1013.8 |
| 20260509152722 | 26 | 245 | 1.6 | 3.2 | 0.00 | 0.00 | 0.00 | 38 | 1013.7 |
| 20260509152219 | 26 | 88 | 1.6 | 3.2 | 0.00 | 0.00 | 0.00 | 39 | 1013.9 |
| 20260509151715 | 26 | 242 | 4.8 | 9.7 | 0.00 | 0.00 | 0.00 | 39 | 1014.0 |
| 20260509151213 | 25 | 176 | 1.6 | 1.6 | 0.00 | 0.00 | 0.00 | 41 | 1014.1 |
| 20260509150710 | 25 | 141 | 4.8 | 8.0 | 0.00 | 0.00 | 0.00 | 41 | 1014.1 |
| 20260509150209 | 25 | 184 | 3.2 | 4.8 | 0.00 | 0.00 | 0.00 | 43 | 1014.1 |
| 20260509145704 | 25 | 91 | 1.6 | 3.2 | 0.00 | 0.00 | 0.00 | 44 | 1014.1 |
| 20260509145200 | 25 | 219 | 3.2 | 4.8 | 0.00 | 0.00 | 0.00 | 44 | 1014.5 |
| 20260509144656 | 23 | 166 | 1.6 | 1.6 | 0.00 | 0.00 | 0.00 | 47 | 1014.1 |
| 20260509144154 | 23 | 187 | 3.2 | 3.2 | 0.00 | 0.00 | 0.00 | 47 | 1014.0 |
| 20260509143651 | 23 | 170 | 3.2 | 3.2 | 0.00 | 0.00 | 0.00 | 49 | 1014.0 |
| 20260509143148 | 22 | 163 | 3.2 | 3.2 | 0.00 | 0.00 | 0.00 | 50 | 1013.9 |
| 20260509142643 | 22 | 194 | 3.2 | 4.8 | 0.00 | 0.00 | 0.00 | 51 | 1014.1 |
| 20260509142141 | 21 | 227 | 4.8 | 4.8 | 0.00 | 0.00 | 0.00 | 53 | 1014.0 |
| 20260509141636 | 21 | 182 | 3.2 | 3.2 | 0.00 | 0.00 | 0.00 | 54 | 1013.8 |
| 20260509141132 | 21 | 176 | 4.8 | 8.0 | 0.00 | 0.00 | 0.00 | 54 | 1014.3 |
| 20260509140630 | 21 | 209 | 4.8 | 4.8 | 0.00 | 0.00 | 0.00 | 57 | 1014.0 |
| 20260509140128 | 20 | 181 | 1.6 | 3.2 | 0.00 | 0.00 | 0.00 | 60 | 1014.5 |
| 20260509135624 | 20 | 241 | 3.2 | 4.8 | 0.00 | 0.00 | 0.00 | 61 | 1014.3 |
| 20260509135123 | 19 | 206 | 1.6 | 3.2 | 0.00 | 0.00 | 0.00 | 65 | 1014.1 |
| 20260509134619 | 19 | 154 | 4.8 | 4.8 | 0.00 | 0.00 | 0.00 | 65 | 1014.3 |
| 20260509134116 | 18 | 180 | 3.2 | 3.2 | 0.00 | 0.00 | 0.00 | 66 | 1014.3 |
| 20260509133614 | 18 | 185 | 6.4 | 9.7 | 0.00 | 0.00 | 0.00 | 67 | 1014.3 |
| 20260509133111 | 18 | 177 | 3.2 | 3.2 | 0.00 | 0.00 | 0.00 | 70 | 1014.5 |
| 20260509132609 | 18 | 181 | 3.2 | 3.2 | 0.00 | 0.00 | 0.00 | 71 | 1014.3 |
| 20260509132107 | 18 | 140 | 3.2 | 4.8 | 0.00 | 0.00 | 0.00 | 72 | 1014.4 |
| 20260509131603 | 17 | 189 | 1.6 | 1.6 | 0.00 | 0.00 | 0.00 | 74 | 1014.4 |
| 20260509131100 | 17 | 190 | 0.0 | 1.6 | 0.00 | 0.00 | 0.00 | 75 | 1014.5 |
| 20260509130555 | 17 | 112 | 4.8 | 8.0 | 0.00 | 0.00 | 0.00 | 76 | 1014.4 |
| 20260509130053 | 17 | 133 | 3.2 | 3.2 | 0.00 | 0.00 | 0.00 | 77 | 1014.0 |
| 20260509125549 | 17 | 161 | 4.8 | 4.8 | 0.00 | 0.00 | 0.00 | 78 | 1014.1 |
| 20260509125046 | 16 | 131 | 3.2 | 3.2 | 0.00 | 0.00 | 0.00 | 79 | 1014.0 |
| 20260509124542 | 16 | 149 | 1.6 | 1.6 | 0.00 | 0.00 | 0.00 | 79 | 1013.8 |
| 20260509124039 | 16 | 135 | 4.8 | 8.0 | 0.00 | 0.00 | 0.00 | 80 | 1013.9 |
| 20260509123537 | 16 | 145 | 4.8 | 4.8 | 0.00 | 0.00 | 0.00 | 80 | 1013.9 |
| 20260509123033 | 16 | 139 | 1.6 | 3.2 | 0.00 | 0.00 | 0.00 | 80 | 1013.9 |
| 20260509122530 | 16 | 195 | 1.6 | 1.6 | 0.00 | 0.00 | 0.00 | 81 | 1013.8 |
| 20260509122027 | 15 | 136 | 3.2 | 3.2 | 0.00 | 0.00 | 0.00 | 82 | 1013.7 |
| 20260509121523 | 15 | 126 | 1.6 | 4.8 | 0.00 | 0.00 | 0.00 | 82 | 1013.7 |
| 20260509121021 | 15 | 192 | 3.2 | 4.8 | 0.00 | 0.00 | 0.00 | 81 | 1013.5 |
| 20260509120519 | 15 | 178 | 1.6 | 1.6 | 0.00 | 0.00 | 0.00 | 80 | 1013.6 |
| 20260509120017 | 15 | 125 | 1.6 | 1.6 | 0.00 | 0.00 | 0.00 | 80 | 1013.3 |
| 20260509115514 | 15 | 113 | 3.2 | 4.8 | 0.00 | 0.00 | 0.00 | 79 | 1013.2 |
| 20260509115012 | 15 | 54 | 3.2 | 4.8 | 0.00 | 0.00 | 0.00 | 79 | 1013.3 |
| 20260509114509 | 15 | 189 | 1.6 | 3.2 | 0.00 | 0.00 | 0.00 | 78 | 1013.0 |
| 20260509114009 | 16 | 119 | 3.2 | 4.8 | 0.00 | 0.00 | 0.00 | 78 | 1013.0 |
| 20260509113506 | 16 | 174 | 1.6 | 1.6 | 0.00 | 0.00 | 0.00 | 77 | 1012.9 |
| 20260509113004 | 16 | 102 | 4.8 | 8.0 | 0.00 | 0.00 | 0.00 | 76 | 1012.8 |
| 20260509112500 | 16 | 101 | 8.0 | 11.3 | 0.00 | 0.00 | 0.00 | 76 | 1012.7 |
| 20260509111956 | 16 | 129 | 3.2 | 4.8 | 0.00 | 0.00 | 0.00 | 74 | 1012.7 |
| 20260509111454 | 16 | 136 | 3.2 | 3.2 | 0.00 | 0.00 | 0.00 | 73 | 1012.9 |
| 20260509110951 | 16 | 147 | 9.7 | 11.3 | 0.00 | 0.00 | 0.00 | 72 | 1012.9 |
| 20260509110447 | 16 | 142 | 1.6 | 3.2 | 0.00 | 0.00 | 0.00 | 71 | 1012.7 |
| 20260509105945 | 16 | 157 | 4.8 | 4.8 | 0.00 | 0.00 | 0.00 | 69 | 1012.6 |